Location: Glendo
(42.5037°N, 105.0248°W)
Time: 03:17:24
(UTC+00:00)

X-37B - Visible Passes

Search period start: 20 January 2022 00:00
Search period end: 30 January 2022 00:00
Orbit: 334 x 337 km, 45.0° (Epoch: 11 January)

Date Brightness Start Highest point End Pass type
(mag) Time Alt. Az. Time Alt. Az. Time Alt. Az.
25 Jan 3.2 01:47:37 10° S 01:47:44 11° S 01:47:44 11° S visible
26 Jan 2.9 02:06:47 10° SW 02:07:37 16° SSW 02:07:37 16° SSW visible
27 Jan 2.6 00:53:04 10° S 00:54:36 14° SE 00:56:09 10° ESE visible
27 Jan 3.5 02:26:54 10° WSW 02:27:26 14° WSW 02:27:26 14° WSW visible
28 Jan 1.4 01:12:14 10° SW 01:14:48 32° SSE 01:15:56 23° ESE visible
29 Jan 0.2 01:32:19 10° WSW 01:35:09 73° SSE 01:35:38 55° E visible
